Historique des mesures à Cassis (13260), France
Quotidien Résumé Janvier 12, 2018 Unités:  US    Métrique   Métrique/US
« Précédent (Jour)
Suivant (Jour) »
Quotidien Hebdomadaire Mensuel Annuel Période au choix
  Maximum: Minimum: Moyenne:
Température: 32 °F 46.2 °F 49.6 °F
Point de rosée: 32 °F 34.2 °F 37 °F
Humidité: Humidity % 51 % 58 %
Vitesse du vent: WindSpeedKMH mph 0.0 mph 4.3 mph
Rafales: WindSpeedGustKMH mph - -
Vent:- - WNW
Pression: 0 in 29.8 in -
Précipitations: 0 in    
Historical Graphs
 
 
Mesures pour : Janvier 12, 2018
Heure Temperature Point de rosée Pression Vent Vitesse du vent Rafales Humidité Pluie (par heure) Conditions
32 °F 32 °F 0 in Calm     Humidity % 0 in SoftwareType W/m2
00:12 48.7 °F 37.6 °F 29.8 in NNW 6.1 mph 9.3 mph 65 % 0 in open2300-1.11 W/m2
01:12 47.1 °F 36.7 °F 29.8 in WNW 10.5 mph 10.5 mph 67 % 0 in open2300-1.11 W/m2
02:12 47.1 °F 36 °F 29.8 in NNW 4.3 mph 4.3 mph 65 % 0 in open2300-1.11 W/m2
03:12 48 °F 36 °F 29.9 in WNW 6.8 mph 10.1 mph 63 % 0 in open2300-1.11 W/m2
04:12 47.5 °F 35.4 °F 29.9 in NW 2.1 mph 4.7 mph 63 % 0 in open2300-1.11 W/m2
05:12 46.2 °F 35.4 °F 29.9 in Calm   1.1 mph 66 % 0 in open2300-1.11 W/m2
06:12 46.8 °F 34.9 °F 29.9 in West 13.4 mph 13.4 mph 63 % 0 in open2300-1.11 W/m2
07:12 47.5 °F 34.3 °F 29.9 in NNW 8.2 mph 10.1 mph 60 % 0 in open2300-1.11 W/m2
08:12 47.3 °F 34.2 °F 29.9 in NNW 6.1 mph 6.1 mph 60 % 0 in open2300-1.11 W/m2
09:12 49.1 °F 34.5 °F 29.9 in Calm   6.8 mph 57 % 0 in open2300-1.11 W/m2
10:12 49.6 °F 35.1 °F 29.9 in Calm   5.8 mph 57 % 0 in open2300-1.11 W/m2
11:12 51.6 °F 36 °F 30 in NNE 1.1 mph 4.7 mph 55 % 0 in open2300-1.11 W/m2
12:12 53.8 °F 36 °F 29.9 in Calm   2.9 mph 51 % 0 in open2300-1.11 W/m2
13:12 54.1 °F 38.7 °F 29.9 in WNW 16.6 mph 16.6 mph 56 % 0 in open2300-1.11 W/m2
14:12 55.2 °F 39.2 °F 29.9 in West 6.4 mph 6.4 mph 55 % 0 in open2300-1.11 W/m2
15:12 55.8 °F 39.7 °F 29.9 in NNW 6.4 mph 13.4 mph 55 % 0 in open2300-1.11 W/m2
16:12 55.2 °F 40.3 °F 30 in West 10.5 mph 13.7 mph 57 % 0 in open2300-1.11 W/m2
17:12 53.8 °F 40.3 °F 30 in West 2.9 mph 2.9 mph 60 % 0 in open2300-1.11 W/m2
18:12 52.3 °F 39.7 °F 30 in WNW 1.1 mph 1.8 mph 62 % 0 in open2300-1.11 W/m2
19:12 51.6 °F 39.4 °F 30 in Calm     63 % 0 in open2300-1.11 W/m2
20:12 51.4 °F 39.2 °F 30 in Calm     63 % 0 in open2300-1.11 W/m2
21:12 50.7 °F 38.8 °F 30 in NNW 6.1 mph 6.1 mph 64 % 0 in open2300-1.11 W/m2
22:12 49.8 °F 38.5 °F 30 in Calm     65 % 0 in open2300-1.11 W/m2
23:12 48.9 °F 37.9 °F 30 in Calm     66 % 0 in open2300-1.11 W/m2
Observations météo à CASSIS
WU-History script by Weather Underground - 1 mb